SV2BZQ-2 Thessalonik GR current weather conditions

sailwx.info

Wind from 063 at 2 knots gusting 7

Air temperature 11.7° C
Dewpoint 9.7° C

Last reported at 2015-Feb-27 14:49 UTC.
Time now 2015-Feb-27 15:24 UTC

Location: N 40°41' E 022°51'.
View on Google Maps.

See reports from other nearby stations

  
Tides and Currents Weather Stations Pressure Air Temp Water Temp Dewpoint Dewpoint Depression Visibility Wind Speed Wind Dir Waves Ship Positions
date/time (UTC)wind fromknots sea level pressurealtimeterstation pressurevisibilityair tempwater tempwave heightnotes
2015-Feb-27 14:49 063 2 gusting 7 11.7
2015-Feb-27 14:35 063 11.7
2015-Feb-27 14:18 057 3 gusting 12 11.7
2015-Feb-27 14:04 078 5 gusting 9 12.2
2015-Feb-27 13:49 085 1 gusting 9 12.2
2015-Feb-27 13:33 076 3 gusting 13 12.2
2015-Feb-27 13:19 063 6 gusting 13 12.8
2015-Feb-27 13:03 072 9 gusting 13 12.8
2015-Feb-27 12:48 014 7 gusting 13 12.8
2015-Feb-27 12:34 082 9 gusting 14 12.8
2015-Feb-27 12:17 078 9 gusting 15 12.2
2015-Feb-27 12:02 094 8 gusting 19 12.2
2015-Feb-27 11:47 124 8 gusting 15 11.7
2015-Feb-27 11:32 057 10 gusting 17 11.7
2015-Feb-27 11:16 057 7 gusting 15 12.2
2015-Feb-27 11:02 078 7 gusting 20 12.2
2015-Feb-27 10:47 085 9 gusting 18 12.2
2015-Feb-27 10:30 044 8 gusting 15 11.7
2015-Feb-27 10:16 061 7 gusting 18 11.7
2015-Feb-27 10:01 075 8 gusting 19 11.7
2015-Feb-27 09:45 076 6 gusting 13 11.7
2015-Feb-27 09:31 065 10 gusting 19 11.7
2015-Feb-27 09:15 065 6 gusting 15 11.1
2015-Feb-27 08:59 057 6 gusting 13 11.1
2015-Feb-27 08:44 066 7 gusting 13 11.1
2015-Feb-27 08:29 094 4 gusting 13 11.7
2015-Feb-27 08:15 081 5 gusting 13 11.7
2015-Feb-27 07:59 086 6 gusting 14 11.7
2015-Feb-27 07:44 095 4 gusting 13 11.1
2015-Feb-27 07:29 103 4 gusting 12 11.1
2015-Feb-27 07:13 067 6 gusting 12 11.1
2015-Feb-27 06:58 074 1 gusting 11 11.1
2015-Feb-27 06:43 076 5 gusting 13 11.1
2015-Feb-27 06:28 118 1 gusting 9 11.1
2015-Feb-27 06:12 087 2 gusting 7 10.6
2015-Feb-27 05:57 092 5 gusting 10 10.6
2015-Feb-27 05:43 067 3 gusting 8 10.6
2015-Feb-27 05:27 077 6 gusting 10 10.6
2015-Feb-27 05:12 084 3 gusting 9 10.6
2015-Feb-27 04:57 072 4 gusting 9 10.6
2015-Feb-27 04:42 076 2 gusting 9 10.6
2015-Feb-27 04:26 085 0 gusting 9 10.6
2015-Feb-27 04:11 079 3 gusting 9 10.6
2015-Feb-27 03:56 078 4 gusting 10 10.6
2015-Feb-27 03:41 084 3 gusting 8 10.6
2015-Feb-27 03:27 080 2 gusting 6 10.6
2015-Feb-27 03:10 103 10.6
2015-Feb-27 02:55 080 10.0
2015-Feb-27 02:40 076 0 gusting 6 10.0
2015-Feb-27 02:24 046 2 gusting 8 10.0
2015-Feb-27 02:09 092 3 gusting 10 10.0
2015-Feb-27 01:54 069 2 gusting 8 10.0
2015-Feb-27 01:39 069 2 gusting 7 10.0
2015-Feb-27 01:24 083 2 gusting 7 10.0
2015-Feb-27 01:10 040 1 gusting 4 10.6
2015-Feb-27 00:53 051 2 gusting 7 10.0
2015-Feb-27 00:38 070 1 gusting 7 10.0
2015-Feb-27 00:27 090 0 gusting 5 10.0
2015-Feb-27 00:09 053 2 gusting 5 10.0
2015-Feb-26 23:53 057 2 gusting 5 10.0
2015-Feb-26 23:38 061 0 gusting 5 10.0
2015-Feb-26 23:23 087 9.4
2015-Feb-26 23:07 080 0 gusting 4 9.4
2015-Feb-26 22:52 345 9.4
2015-Feb-26 22:37 220 9.4
2015-Feb-26 22:22 214 1 gusting 6 9.4
2015-Feb-26 22:06 298 1 gusting 3 9.4
2015-Feb-26 21:53 308 2 gusting 6 10.0
2015-Feb-26 21:37 304 2 gusting 4 10.0
2015-Feb-26 21:21 290 10.0
2015-Feb-26 21:06 286 10.0
2015-Feb-26 20:50 285 10.0
2015-Feb-26 20:36 285 10.0
2015-Feb-26 20:05 276 0 gusting 3 10.6
2015-Feb-26 19:50 272 0 gusting 3 11.1
2015-Feb-26 19:35 271 1 gusting 5 11.1
2015-Feb-26 19:20 171 11.7
2015-Feb-26 19:05 171 11.7
2015-Feb-26 18:50 171 11.7
2015-Feb-26 18:34 171 12.2
2015-Feb-26 18:19 178 12.2
2015-Feb-26 18:04 178 12.2
2015-Feb-26 17:49 178 12.2
2015-Feb-26 17:33 178 12.2
2015-Feb-26 17:19 178 12.2
2015-Feb-26 17:04 178 12.8
2015-Feb-26 16:48 178 12.8
2015-Feb-26 16:32 178 12.8
2015-Feb-26 16:18 178 12.8
2015-Feb-26 16:02 178 13.3
2015-Feb-26 15:47 178 13.3
2015-Feb-26 15:32 178 13.3
2015-Feb-26 15:18 178 13.9
2015-Feb-26 15:02 178 13.9
2015-Feb-26 14:46 178 13.9
2015-Feb-26 14:31 178 14.4
2015-Feb-26 14:16 180 14.4
2015-Feb-26 14:01 180 14.4
2015-Feb-26 13:46 186 14.4
2015-Feb-26 13:31 187 0 gusting 5 14.4
2015-Feb-26 13:16 202 3 gusting 6 14.4
2015-Feb-26 13:01 209 3 gusting 6 15.0
2015-Feb-26 12:46 197 1 gusting 7 15.0
2015-Feb-26 12:30 172 3 gusting 8 15.0
2015-Feb-26 12:14 221 4 gusting 6 15.6
2015-Feb-26 12:00 159 1 gusting 7 15.6
2015-Feb-26 11:45 194 15.6
2015-Feb-26 11:29 209 2 gusting 5 15.6
2015-Feb-26 11:14 188 15.6
2015-Feb-26 10:59 202 2 gusting 6 15.6
2015-Feb-26 10:46 190 4 gusting 7 15.6
2015-Feb-26 10:29 191 2 gusting 6 15.6
2015-Feb-26 10:13 259 15.0
2015-Feb-26 09:58 269 14.4
2015-Feb-26 09:44 268 13.9
2015-Feb-26 09:28 268 0 gusting 2 13.3
2015-Feb-26 09:13 271 12.2
2015-Feb-26 08:58 269 1 gusting 5 12.2
2015-Feb-26 08:43 298 11.7
2015-Feb-26 08:27 298 11.1
2015-Feb-26 08:11 299 10.6
2015-Feb-26 07:56 299 9.4
2015-Feb-26 07:42 299 8.9
2015-Feb-26 07:26 299 8.3
2015-Feb-26 07:11 299 7.8
2015-Feb-26 06:57 298 6.7
2015-Feb-26 06:41 298 6.7
2015-Feb-26 06:25 299 6.1
2015-Feb-26 06:10 299 6.1
2015-Feb-26 05:55 298 1 gusting 3 5.6
2015-Feb-26 05:39 293 5.6
2015-Feb-26 05:24 293 5.6
2015-Feb-26 05:09 293 5.6
2015-Feb-26 04:54 304 5.6
2015-Feb-26 04:38 305 5.6
2015-Feb-26 04:24 302 3 gusting 5 5.6
2015-Feb-26 04:08 291 0 gusting 3 5.6
2015-Feb-26 03:54 298 6.1
2015-Feb-26 03:38 300 6.1
2015-Feb-26 03:23 299 1 gusting 4 6.1
2015-Feb-26 03:07 299 6.1
2015-Feb-26 02:52 299 6.1
2015-Feb-26 02:37 299 6.1
2015-Feb-26 02:23 299 6.1
2015-Feb-26 02:07 299 6.1
2015-Feb-26 01:52 294 1 gusting 4 6.7
2015-Feb-26 01:37 039 7.8
2015-Feb-26 01:21 038 7.8
2015-Feb-26 01:06 038 7.8
2015-Feb-26 00:51 067 7.8
2015-Feb-26 00:36 069 7.2
2015-Feb-26 00:21 068 7.2
2015-Feb-26 00:06 069 7.8
2015-Feb-25 23:50 069 7.8
2015-Feb-25 23:35 070 7.8
2015-Feb-25 23:20 072 8.3
2015-Feb-25 23:05 072 8.3
2015-Feb-25 22:50 072 8.3
2015-Feb-25 22:34 048 8.3
2015-Feb-25 22:19 048 8.3
2015-Feb-25 22:04 048 8.9
2015-Feb-25 21:50 048 8.9
2015-Feb-25 21:34 047 8.9
2015-Feb-25 21:19 045 1 gusting 3 8.9
2015-Feb-25 21:04 043 8.9
2015-Feb-25 20:48 042 8.9
2015-Feb-25 20:34 041 8.9
2015-Feb-25 20:18 042 8.9
2015-Feb-25 20:02 041 8.9
2015-Feb-25 19:47 040 8.9
2015-Feb-25 19:33 040 0 gusting 3 9.4
2015-Feb-25 19:17 061 10.0
2015-Feb-25 19:03 062 10.0
2015-Feb-25 18:47 062 10.0
2015-Feb-25 18:32 059 10.6
2015-Feb-25 18:16 051 10.6
2015-Feb-25 18:01 273 10.6
2015-Feb-25 17:46 273 10.6
2015-Feb-25 17:31 273 11.1
2015-Feb-25 17:16 273 11.7
2015-Feb-25 17:00 272 1 gusting 3 11.7
2015-Feb-25 16:45 269 12.2
2015-Feb-25 16:29 243 1 gusting 8 12.8
2015-Feb-25 16:14 154 13.3
2015-Feb-25 16:00 153 13.9
2015-Feb-25 15:44 154 13.9
2015-Feb-25 15:29 145 14.4
2015-Feb-25 15:14 149 14.4